Flag for Japan Weather past 2 weeks in Sagamihara, Japan

Now
84 °F

Clear.


Feels Like: 92 °F
Forecast: 76 / 93 °F
Wind: 2 mph from Southeast

Location: Yokota Ab

Current Time: Aug 21, 2014 at 9:56:33 PM

Latest Report: Aug 21, 2014 at 8:58 PM


Visibility: 10 mi

Pressure: 29.93 "Hg

Humidity: 76%

Dew point: 75 °F

Location of SagamiharaLocation

Historic Weather in Sagamihara — Graph

°F

Sagamihara temperature yesterday

Maximum temperature yesterday: 94 °F (at 12:58 PM)
Minimum temperature yesterday: 80 °F (at 3:58 AM)
Average temperature yesterday: 86 °F

Past Weeks' High & Low Weather Summary

 TemperatureHumidityPressure
High94 °F (Aug 20, 12:58 PM)100% (Aug 9, 11:04 PM)30.06 "Hg (Aug 9, 11:04 PM)
Low69 °F (Aug 13, 12:58 AM)51% (Aug 21, 2:58 PM)29.42 "Hg (Aug 11, 1:58 AM)
Average80 °F82%29.84 "Hg
* Reported Aug 6 8:58 PM — Aug 21 8:58 PM, Sagamihara, Weather by CustomWeather, © 2014

Note: Actual official high and low records may vary slightly from our data, if they occured in-between our weather recording intervals... More about our weather records

Advertising

Sagamihara weather history for previous 24 hours

 ConditionsComfort  
Time TempWeatherWind HumidityBarometerVisibility
8:58 PM
Aug 21
84 °FClear.2 mph76%29.93 "Hg10 mi
7:58 PM83 °FClear.5 mph77%29.92 "Hg10 mi
6:58 PM85 °FClear.8 mph72%29.90 "Hg10 mi
5:58 PM87 °FSunny.12 mph69%29.88 "Hg10 mi
4:58 PM90 °FSunny.6 mph63%29.87 "Hg10 mi
3:58 PM92 °FScattered clouds.6 mph59%29.87 "Hg10 mi
2:58 PM94 °FPassing clouds.5 mph51%29.87 "Hg10 mi
1:58 PM94 °FSunny.7 mph53%29.88 "Hg10 mi
12:58 PM93 °FScattered clouds.No wind55%29.90 "Hg10 mi
11:58 AM92 °FSunny.3 mph56%29.92 "Hg10 mi
10:58 AM90 °FPassing clouds.5 mph63%29.93 "Hg10 mi
9:58 AM88 °FPassing clouds.2 mph65%29.95 "Hg10 mi
8:58 AM85 °FOvercast.2 mph72%29.96 "Hg10 mi
7:58 AM83 °FOvercast.6 mph73%29.96 "Hg10 mi
6:58 AM80 °FScattered clouds.3 mph84%29.96 "Hg10 mi
5:58 AM79 °FPartly sunny.2 mph85%29.97 "Hg10 mi
4:58 AM78 °FClear.No wind88%29.96 "Hg10 mi
3:58 AM79 °FClear.1 mph84%29.96 "Hg10 mi
2:58 AM78 °FClear.No wind84%29.94 "Hg10 mi
1:58 AM78 °FClear.6 mph84%29.95 "Hg10 mi
12:58 AM80 °FClear.3 mph80%29.94 "Hg10 mi
11:58 PM
Aug 20
82 °FClear.7 mph73%29.95 "Hg10 mi
10:58 PM82 °FClear.8 mph74%29.96 "Hg10 mi
9:58 PM82 °FClear.7 mph78%29.95 "Hg10 mi
Weather by CustomWeather, © 2014

See weather overviewHow to use our weather pages